Regional Weather Roundup
Issued by NWS Little Rock, AR

Home | Current Version | Previous Version | Graphics & Text | Print | Product List | Glossary On
Versions: 1 2 3 4 5 6 7 8 9 10 11 12 13 14 15 16 17 18 19 20 21 22 23 24 25 26 27 28 29 30 31 32 33 34 35 36 37 38 39 40 41 42 43 44 45 46 47 48 49 50
000
ASUS44 KLZK 222205
RWRLZK

WEATHER ROUNDUP FOR ARKANSAS
NATIONAL WEATHER SERVICE LITTLE ROCK AR
400 PM CST MON DEC 22 2014

NOTE: "FAIR" INDICATES FEW OR NO CLOUDS BELOW 12,000 FEET WITH NO
SIGNIFICANT WEATHER AND/OR OBSTRUCTIONS TO VISIBILITY.

ARZ001-003-010-029-222300-
NORTHWEST ARKANSAS

CITY           SKY/WX    TMP DP  RH WIND       PRES   REMARKS
FAYETTEVILLE   LGT RAIN  50  48  93 SW8       29.53R
FORT SMITH     CLOUDY    53  50  89 E6        29.52F
HARRISON       LGT RAIN  48  48 100 S7        29.53R
BENTONVILLE    CLOUDY    48  45  87 W7        29.53R
ROGERS         LGT RAIN  48  47  96 SW9       29.52R FOG
SILOAM SPGS    CLOUDY    50  43  76 W10       29.53S
HIGHFILL       CLOUDY    50  48  93 SW8       29.51R
SPRINGDALE     CLOUDY    50  48  93 SW7G13    29.54R FOG
$$

ARZ004-005-016-222300-
NORTH CENTRAL ARKANSAS

CITY           SKY/WX    TMP DP  RH WIND       PRES   REMARKS
BATESVILLE     CLOUDY    54  50  87 S6        29.57R
FLIPPIN        CLOUDY    52  45  76 S3        29.53R
MTN HOME       CLOUDY    50  49  96 SE3       29.52S FOG
$$

ARZ040-041-222300-
WEST CENTRAL ARKANSAS

CITY           SKY/WX    TMP DP  RH WIND       PRES   REMARKS
MENA           CLOUDY    61  54  77 CALM      29.53F
MOUNT IDA      CLOUDY    57  52  83 VRB3      29.54R
$$

ARZ009-017-025-026-028-222300-
NORTHEAST ARKANSAS

CITY           SKY/WX    TMP DP  RH WIND       PRES   REMARKS
CORNING        CLOUDY    54  54 100 S9        29.58S FOG
JONESBORO      CLOUDY    53  53 100 S8        29.59S
NEWPORT        LGT RAIN  53  53 100 S10       29.60R
WALNUT RIDGE   CLOUDY    54  48  82 S12       29.57S
BLYTHEVILLE    LGT RAIN  55  53  93 S8        29.61S
NW BLYTHEVILLE CLOUDY    54  52  94 SE8       29.60  FOG
$$

ARZ022-023-033-042-044-222300-
CENTRAL ARKANSAS

CITY           SKY/WX    TMP DP  RH WIND       PRES   REMARKS
LITTLE ROCK    DRIZZLE   57  52  83 S9        29.57S
N LITTLE ROCK  CLOUDY    54  54  98 S5        29.57S
JACKSONVILLE   CLOUDY    54  54  98 SE1       29.57S
SEARCY         CLOUDY    54  52  93 S6        29.60R FOG
HOT SPRINGS    CLOUDY    55  53  93 CALM      29.57R
RUSSELLVILLE   CLOUDY    53  51  93 CALM      29.56R
CLINTON        CLOUDY    52  52 100 CALM      29.57S FOG
$$

ARZ036-222300-
EAST ARKANSAS

CITY           SKY/WX    TMP DP  RH WIND       PRES   REMARKS
WEST MEMPHIS   CLOUDY    57  54  89 S13       29.60R
$$

ARZ050-053-066-070-073-222300-
SOUTHWEST ARKANSAS

CITY           SKY/WX    TMP DP  RH WIND       PRES   REMARKS
ARKADELPHIA    FAIR      59  58  96 S5        29.58R
CAMDEN         PTSUNNY   59  54  82 MISG      29.58S
TEXARKANA      MOSUNNY   62  56  80 SE6       29.55S
EL DORADO      CLOUDY    61  56  83 SW3       29.59R
DE QUEEN       PTSUNNY   63  54  72 CALM      29.52F
$$

ARZ056-057-069-222300-
SOUTHEAST ARKANSAS

CITY           SKY/WX    TMP DP  RH WIND       PRES   REMARKS
PINE BLUFF     CLOUDY    58  52  80 S7        29.59R
STUTTGART      CLOUDY    57  54  88 S12       29.60R
MONTICELLO     CLOUDY    59  56  89 S5        29.59S

$$





USA.gov is the U.S. government's official web portal to all federal, state and local government web resources and services.